FW8290 Weather Reports


time (UTC)temp
C
wind
direction
speed
KPH
gust
KPH
rain 1hr
cm
rain 24hr
cm
rain mn
cm
humidity
%
barometer
mb
20260510114555 10 0 0.0 0.0 0.00 0.00 0.00 98 1013.3
20260510113049 10 0 0.0 0.0 0.00 0.00 0.00 99 1013.1
20260510111551 9 0 0.0 3.2 0.00 0.00 0.00 99 1013.1
20260510110053 8 0 0.0 4.8 0.00 0.00 0.00 98 1013.2
20260510104558 8 0 0.0 0.0 0.00 0.00 0.00 98 1012.7
20260510103049 8 0 0.0 0.0 0.00 0.00 0.00 98 1012.5
20260510101558 7 331 1.6 4.8 0.00 0.00 0.00 97 1012.5
20260510100055 7 0 0.0 0.0 0.00 0.00 0.00 97 1012.3
20260510094557 7 322 1.6 3.2 0.00 0.00 0.00 97 1012.2
20260510093052 7 0 0.0 0.0 0.00 0.00 0.00 97 1012.1
20260510091554 8 322 0.0 4.8 0.00 0.00 0.00 97 1011.9
20260510090049 8 0 1.6 6.4 0.00 0.00 0.00 97 1012.0
20260510084601 8 0 0.0 6.4 0.00 0.00 0.00 98 1011.9
20260510083113 7 316 0.0 11.3 0.00 0.00 0.00 97 1012.5
20260510081611 6 0 0.0 0.0 0.00 0.00 0.00 97 1011.7
20260510080045 6 0 0.0 0.0 0.00 0.00 0.00 96 1011.5
20260510074551 6 332 0.0 3.2 0.00 0.00 0.00 96 1011.7
20260510073052 6 0 0.0 0.0 0.00 0.00 0.00 96 1011.5
20260510071553 6 0 0.0 0.0 0.00 0.00 0.00 96 1011.3
20260510070052 7 0 0.0 1.6 0.00 0.00 0.00 96 1011.3
20260510064552 7 0 0.0 0.0 0.00 0.00 0.00 96 1011.0
20260510063053 7 0 0.0 0.0 0.00 0.00 0.00 96 1011.0
20260510061603 7 0 0.0 0.0 0.00 0.00 0.00 96 1011.1
20260510060055 7 0 0.0 0.0 0.00 0.00 0.00 96 1011.2
20260510054552 7 0 0.0 0.0 0.00 0.00 0.00 96 1011.3
20260510053057 7 0 0.0 0.0 0.00 0.00 0.00 96 1011.4
20260510051550 7 0 0.0 0.0 0.00 0.00 0.00 96 1011.5
20260510050053 8 0 0.0 0.0 0.00 0.00 0.00 95 1011.5
20260510044550 8 0 0.0 0.0 0.00 0.00 0.00 96 1011.6
20260510043055 8 0 0.0 0.0 0.00 0.00 0.00 95 1011.7
20260510041548 8 0 0.0 0.0 0.00 0.00 0.00 96 1011.7
20260510040059 8 0 0.0 0.0 0.00 0.00 0.00 96 1011.7
20260510034558 8 0 0.0 0.0 0.00 0.00 0.00 95 1011.7
20260510033048 9 0 0.0 0.0 0.00 0.00 0.00 95 1011.6
20260510031601 9 0 0.0 0.0 0.00 0.00 0.00 95 1011.7
20260510030057 9 0 0.0 0.0 0.00 0.00 0.00 95 1011.4
20260510024549 10 0 0.0 0.0 0.00 0.00 0.00 95 1011.2
20260510023049 10 0 0.0 0.0 0.00 0.00 0.00 95 1011.1
20260510021551 10 0 0.0 0.0 0.00 0.00 0.00 94 1011.3
20260510020049 10 0 0.0 0.0 0.00 0.00 0.00 94 1011.2
20260510014552 11 0 0.0 0.0 0.00 0.00 0.00 94 1011.0
20260510013101 11 0 0.0 0.0 0.00 0.00 0.00 94 1010.9
20260510011555 11 0 0.0 0.0 0.00 0.00 0.00 93 1011.0
20260510010056 11 0 0.0 1.6 0.00 0.00 0.00 93 1010.8
20260510004550 12 0 0.0 0.0 0.00 0.00 0.00 92 1010.7
20260510003051 12 0 0.0 0.0 0.00 0.00 0.00 91 1010.7
20260510001555 13 0 0.0 0.0 0.00 0.00 0.00 91 1010.7
20260510000052 13 0 0.0 0.0 0.00 0.00 0.00 89 1010.6
20260509234548 14 0 0.0 1.6 0.00 0.00 0.00 89 1010.7
20260509233048 14 0 0.0 1.6 0.00 0.00 0.00 87 1010.6
20260509231555 14 0 0.0 3.2 0.00 0.00 0.00 87 1010.7
20260509230048 15 59 1.6 4.8 0.00 0.00 0.00 87 1010.5
20260509224550 15 0 0.0 6.4 0.00 0.00 0.00 87 1010.4
20260509223049 14 0 0.0 1.6 0.00 0.00 0.00 87 1010.6
20260509221549 14 221 0.0 3.2 0.00 0.00 0.00 89 1010.7
20260509220054 14 61 0.0 3.2 0.00 0.00 0.00 89 1010.7
20260509214553 14 40 0.0 1.6 0.00 0.00 0.00 90 1010.7
20260509213052 14 0 0.0 0.0 0.00 0.00 0.00 89 1010.6
20260509211551 14 0 0.0 1.6 0.00 0.00 0.00 90 1010.5
20260509210100 14 0 0.0 3.2 0.00 0.00 0.00 90 1010.7
20260509204554 15 0 0.0 0.0 0.00 0.00 0.00 87 1010.6
20260509203045 15 0 0.0 6.4 0.00 0.00 0.00 83 1010.6
20260509201546 15 334 3.2 8.0 0.00 0.00 0.00 80 1010.7
20260509200101 15 336 3.2 14.5 0.00 0.00 0.00 79 1010.8
20260509194553 15 344 1.6 9.7 0.00 0.00 0.00 83 1010.7
20260509193051 14 319 3.2 12.9 0.00 0.00 0.00 83 1010.9
20260509191546 14 350 1.6 8.0 0.00 0.00 0.00 83 1011.3
20260509190057 14 298 3.2 8.0 0.00 0.00 0.00 84 1011.3
20260509184640 14 302 3.2 14.5 0.00 0.00 0.00 83 1011.6
20260509183106 15 304 3.2 12.9 0.00 0.00 0.00 82 1011.8
20260509181553 15 328 3.2 6.4 0.00 0.00 0.00 84 1011.8
20260509180055 15 298 3.2 14.5 0.00 0.00 0.00 84 1011.9
20260509174553 15 322 4.8 14.5 0.00 0.00 0.00 83 1011.9
20260509173054 15 313 1.6 8.0 0.00 0.00 0.00 81 1011.9
20260509171552 15 341 3.2 6.4 0.00 0.00 0.00 77 1011.9
20260509170058 15 331 0.0 6.4 0.00 0.00 0.00 79 1011.9
20260509164550 15 196 0.0 4.8 0.00 0.00 0.00 80 1011.9
20260509163108 15 0 0.0 1.6 0.00 0.00 0.00 82 1011.8
20260509161552 15 0 0.0 3.2 0.00 0.00 0.00 83 1011.8
20260509160055 15 329 1.6 4.8 0.00 0.00 0.00 79 1012.3
20260509154554 16 311 1.6 6.4 0.00 0.00 0.00 77 1012.7
20260509153101 16 215 1.6 12.9 0.00 0.00 0.00 76 1012.9
20260509151558 16 350 0.0 6.4 0.00 0.00 0.00 74 1012.7
20260509150055 16 175 0.0 11.3 0.00 0.00 0.00 75 1012.8
20260509144557 16 97 1.6 9.7 0.00 0.00 0.00 73 1012.7
20260509143056 16 258 3.2 12.9 0.00 0.00 0.00 74 1012.4
20260509141607 16 182 3.2 12.9 0.00 0.00 0.00 75 1012.3
20260509134551 15 217 3.2 14.5 0.00 0.00 0.00 78 1012.3
20260509133048 15 219 3.2 12.9 0.00 0.00 0.00 79 1012.4
20260509131551 15 150 1.6 8.0 0.00 0.00 0.00 80 1012.1
20260509130051 15 243 4.8 11.3 0.00 0.00 0.00 80 1012.1
20260509124549 14 207 0.0 14.5 0.00 0.00 0.00 82 1012.3
20260509123058 13 201 0.0 8.0 0.00 0.00 0.00 83 1012.3
20260509121551 13 186 1.6 8.0 0.00 0.00 0.00 84 1012.4